GW6508 Weather Reports


Display with metric or nautical units.
time (UTC)temp
F
wind
direction
speed
MPH
gust
MPH
rain 1hr
in
rain 24hr
in
rain mn
in
humidity
%
barometer
mb
20260507060004 47 29 2.0 3.0 0.00 0.00 0.00 79 1012.4
20260507055003 47 36 2.0 4.0 0.00 0.00 0.00 79 1012.2
20260507053459 47 23 2.0 3.0 0.00 0.00 0.00 78 1012.4
20260507052458 47 23 2.0 3.0 0.00 0.00 0.00 78 1012.4
20260507051455 48 28 2.0 2.0 0.00 0.00 0.00 78 1012.2
20260507050453 48 26 2.0 3.0 0.00 0.00 0.00 78 1012.1
20260507045532 48 27 2.0 3.0 0.00 0.00 0.00 78 1012.2
20260507044449 48 30 1.0 2.0 0.00 0.00 0.00 78 1012.2
20260507043448 48 19 1.0 2.0 0.00 0.00 0.00 77 1012.4
20260507042445 48 24 1.0 3.0 0.00 0.00 0.00 77 1012.4
20260507041444 48 21 1.0 2.0 0.00 0.00 0.00 77 1012.4
20260507040441 48 19 1.0 2.0 0.00 0.00 0.00 77 1012.2
20260507035440 48 23 1.0 2.0 0.00 0.00 0.00 77 1012.4
20260507034437 49 20 1.0 2.0 0.00 0.00 0.00 77 1012.4
20260507033436 49 17 1.0 2.0 0.00 0.00 0.00 77 1012.1
20260507032454 49 20 1.0 2.0 0.00 0.00 0.00 77 1012.2
20260507031432 49 20 2.0 2.0 0.00 0.00 0.00 77 1012.1
20260507030430 49 20 2.0 2.0 0.00 0.00 0.00 77 1012.2
20260507025448 49 18 2.0 2.0 0.00 0.00 0.00 77 1012.1
20260507024426 49 22 1.0 2.0 0.00 0.00 0.00 77 1012.2
20260507023424 49 20 2.0 3.0 0.00 0.00 0.00 77 1012.2
20260507022422 49 20 1.0 3.0 0.00 0.00 0.00 77 1012.5
20260507021419 50 26 2.0 2.0 0.00 0.00 0.00 76 1012.6
20260507020417 50 25 2.0 3.0 0.00 0.00 0.00 76 1012.4
20260507015416 50 23 1.0 3.0 0.00 0.00 0.00 76 1012.5
20260507014434 51 23 1.0 2.0 0.00 0.00 0.00 76 1012.7
20260507013431 51 17 1.0 2.0 0.00 0.00 0.00 76 1012.6
20260507012410 51 17 1.0 2.0 0.00 0.00 0.00 76 1012.7
20260507011408 51 18 1.0 2.0 0.00 0.00 0.00 76 1012.8
20260507010406 51 6 1.0 2.0 0.00 0.00 0.00 75 1012.8
20260507005403 51 21 1.0 4.0 0.00 0.00 0.00 75 1012.9
20260507004422 51 18 2.0 3.0 0.00 0.00 0.00 75 1012.9
20260507003359 51 14 1.0 2.0 0.00 0.00 0.00 75 1013.0
20260507002418 52 26 2.0 4.0 0.00 0.00 0.00 75 1013.0
20260507001355 52 22 2.0 4.0 0.00 0.00 0.00 74 1013.1
20260507000354 52 25 2.0 4.0 0.00 0.00 0.00 74 1013.1
20260506235411 52 28 2.0 4.0 0.00 0.00 0.00 73 1013.2
20260506234410 52 28 2.0 4.0 0.00 0.00 0.00 72 1013.2
20260506233347 53 25 2.0 4.0 0.00 0.00 0.00 71 1013.1
20260506232345 53 24 2.0 3.0 0.00 0.00 0.00 70 1013.1
20260506231343 53 26 2.0 4.0 0.00 0.00 0.00 68 1013.0
20260506230341 54 27 2.0 4.0 0.00 0.00 0.00 67 1013.1
20260506225339 54 53 1.0 2.0 0.00 0.00 0.00 66 1013.2
20260506224337 54 53 1.0 2.0 0.00 0.00 0.00 66 1013.2
20260506223336 54 90 1.0 2.0 0.00 0.00 0.00 65 1013.2
20260506222413 54 45 1.0 2.0 0.00 0.00 0.00 66 1013.2
20260506221332 54 15 1.0 2.0 0.00 0.00 0.00 68 1013.2
20260506220330 54 10 1.0 2.0 0.00 0.00 0.00 67 1013.2
20260506215328 55 349 1.0 2.0 0.00 0.00 0.00 66 1013.2
20260506214346 55 348 1.0 2.0 0.00 0.00 0.00 65 1013.3
20260506213324 55 348 1.0 2.0 0.00 0.00 0.00 65 1013.2
20260506212323 55 350 1.0 2.0 0.00 0.00 0.00 65 1013.3
20260506211340 55 347 1.0 2.0 0.00 0.00 0.00 64 1013.3
20260506210338 55 353 1.0 2.0 0.00 0.00 0.00 64 1013.4
20260506205315 55 345 1.0 2.0 0.00 0.00 0.00 63 1013.2
20260506204314 56 45 1.0 2.0 0.00 0.00 0.00 62 1013.1
20260506203311 56 90 1.0 2.0 0.00 0.00 0.00 62 1013.2
20260506202309 56 90 1.0 2.0 0.00 0.00 0.00 61 1013.1
20260506201308 57 90 1.0 2.0 0.00 0.00 0.00 60 1012.9
20260506200305 58 105 1.0 2.0 0.00 0.00 0.00 59 1012.9
20260506195306 58 45 1.0 2.0 0.00 0.00 0.00 59 1012.8
20260506194302 59 48 1.0 2.0 0.00 0.00 0.00 58 1012.9
20260506193300 60 52 1.0 2.0 0.00 0.00 0.00 57 1012.8
20260506192258 60 59 1.0 2.0 0.00 0.00 0.00 55 1012.7
20260506191256 61 68 1.0 3.0 0.00 0.00 0.00 53 1012.6
20260506190253 62 152 2.0 4.0 0.00 0.00 0.00 51 1012.7
20260506185312 62 143 2.0 4.0 0.00 0.00 0.00 51 1012.6
20260506184250 63 149 2.0 4.0 0.00 0.00 0.00 49 1012.6
20260506183248 63 146 2.0 4.0 0.00 0.00 0.00 49 1012.6
20260506182245 63 120 1.0 3.0 0.00 0.00 0.00 46 1012.6
20260506181243 64 111 1.0 3.0 0.00 0.00 0.00 46 1012.6
20260506180242 64 154 2.0 3.0 0.00 0.00 0.00 46 1012.6
20260506175240 64 106 1.0 4.0 0.00 0.00 0.00 44 1012.6
20260506174238 64 146 1.0 4.0 0.00 0.00 0.00 45 1012.8
20260506173235 64 150 2.0 3.0 0.00 0.00 0.00 45 1012.7
20260506172234 65 180 2.0 4.0 0.00 0.00 0.00 45 1012.7
20260506171232 65 159 1.0 4.0 0.00 0.00 0.00 45 1012.8
20260506170229 65 184 2.0 4.0 0.00 0.00 0.00 47 1012.8
20260506165228 65 178 2.0 4.0 0.00 0.00 0.00 47 1012.8
20260506164306 64 187 2.0 3.0 0.00 0.00 0.00 47 1012.9
20260506163223 64 198 2.0 3.0 0.00 0.00 0.00 47 1013.0
20260506162221 64 234 2.0 5.0 0.00 0.00 0.00 46 1013.2
20260506161220 64 280 2.0 5.0 0.00 0.00 0.00 48 1013.2
20260506160218 63 334 3.0 4.0 0.00 0.00 0.00 48 1013.3
20260506155215 63 348 3.0 5.0 0.00 0.00 0.00 48 1013.3
20260506154234 63 351 3.0 4.0 0.00 0.00 0.00 48 1013.4
20260506153212 63 351 3.0 4.0 0.00 0.00 0.00 47 1013.4
20260506152209 63 347 3.0 5.0 0.00 0.00 0.00 48 1013.5
20260506151228 63 358 4.0 5.0 0.00 0.00 0.00 47 1013.6
20260506150225 64 352 3.0 5.0 0.00 0.00 0.00 47 1013.9
20260506145204 64 341 3.0 5.0 0.00 0.00 0.00 47 1013.9
20260506144203 63 343 3.0 5.0 0.00 0.00 0.00 49 1014.1
20260506143221 63 351 3.0 5.0 0.00 0.00 0.00 48 1014.1
20260506142157 63 354 3.0 4.0 0.00 0.00 0.00 49 1014.2
20260506141155 63 356 3.0 6.0 0.00 0.00 0.00 49 1014.3
20260506140155 63 354 3.0 5.0 0.00 0.00 0.00 49 1014.3
20260506135152 62 358 4.0 5.0 0.00 0.00 0.00 50 1014.6
20260506134150 62 339 3.0 5.0 0.00 0.00 0.00 50 1014.6
20260506133148 62 333 2.0 4.0 0.00 0.00 0.00 50 1014.6
20260506132146 61 344 3.0 4.0 0.00 0.00 0.00 52 1014.7
20260506131144 61 315 2.0 5.0 0.00 0.00 0.00 53 1014.7
20260506130202 60 333 3.0 5.0 0.00 0.00 0.00 53 1015.0
20260506125140 59 318 3.0 5.0 0.00 0.00 0.00 54 1014.8
20260506124158 59 357 3.0 4.0 0.00 0.00 0.00 54 1015.0
20260506123144 59 344 3.0 5.0 0.00 0.00 0.00 54 1015.0
20260506122134 58 348 3.0 5.0 0.00 0.00 0.00 56 1015.4
20260506121132 58 348 3.0 4.0 0.00 0.00 0.00 56 1015.4
20260506120129 58 358 3.0 5.0 0.00 0.00 0.00 56 1015.5
20260506115128 58 353 3.0 5.0 0.00 0.00 0.00 58 1015.5
20260506114125 57 315 2.0 4.0 0.00 0.00 0.00 58 1015.7
20260506113124 57 348 3.0 4.0 0.00 0.00 0.00 59 1015.8
20260506112121 57 262 2.0 6.0 0.00 0.00 0.00 60 1015.8
20260506111120 56 318 3.0 5.0 0.00 0.00 0.00 61 1015.9
20260506110118 55 340 2.0 4.0 0.00 0.00 0.00 61 1015.9
20260506105115 55 355 3.0 4.0 0.00 0.00 0.00 61 1015.9
20260506104114 55 352 2.0 4.0 0.00 0.00 0.00 62 1016.0
20260506103112 54 355 2.0 4.0 0.00 0.00 0.00 63 1016.0
20260506102129 54 352 2.0 4.0 0.00 0.00 0.00 64 1016.1
20260506101149 53 355 2.0 4.0 0.00 0.00 0.00 64 1016.1
20260506100106 53 1 3.0 4.0 0.00 0.00 0.00 65 1016.0
20260506095103 53 1 3.0 6.0 0.00 0.00 0.00 64 1016.1
20260506094121 52 1 3.0 5.0 0.00 0.00 0.00 69 1016.1
20260506093059 51 1 2.0 4.0 0.00 0.00 0.00 71 1016.2
20260506092058 51 6 2.0 6.0 0.00 0.00 0.00 71 1016.0
20260506091116 50 1 2.0 4.0 0.00 0.00 0.00 74 1016.2
20260506090053 49 347 2.0 4.0 0.00 0.00 0.00 75 1016.1
20260506085053 49 358 2.0 4.0 0.00 0.00 0.00 76 1016.1
20260506084110 48 3 2.0 4.0 0.00 0.00 0.00 77 1016.1
20260506083047 47 3 2.0 4.0 0.00 0.00 0.00 77 1016.2
20260506082045 47 1 2.0 4.0 0.00 0.00 0.00 77 1016.2
20260506081043 46 5 2.0 4.0 0.00 0.00 0.00 78 1016.3
20260506073036 44 221 2.0 3.0 0.00 0.00 0.00 80 1016.4
20260506072054 44 351 2.0 3.0 0.00 0.00 0.00 80 1016.4
20260506071032 43 341 2.0 3.0 0.00 0.00 0.00 80 1016.3
20260506062021 42 239 2.0 2.0 0.00 0.00 0.00 80 1016.0
20260506061020 42 225 1.0 2.0 0.00 0.00 0.00 80 1015.9